sat.trackr.live / text

‹ back to catalog

STARLINK-34194

NORAD 64179 · 2025-113K

PAYLOAD ACTIVE UNKNOWN

§ Identity

Operator
Country
US
Launch date
2025-05-28
Launch site
AFETR
Launch vehicle
Mass (kg)
RCS (m²)

Purposes: comms

External: N2YO · Heavens-Above · Gunter

§ Orbital elements

Epoch: 2026-05-25T03:03:39.280608Z

Period
93.85 min
Inclination
53.1598°
Eccentricity
0.0001388
Mean motion
15.34401890 rev/d
Perigee alt
461.7 km
Apogee alt
463.6 km
Semi-major
6,840.8 km
B*
9.7678e-4
RAAN
94.9840°
Arg perigee
84.9472°
Mean anomaly
275.1689°
Rev number
5,678

§ Raw data

STARLINK-341941 64179U 25113K   26145.12753797  .00032772  00000+0  97678-3 0  99982 64179  53.1598  94.9840 0001388  84.9472 275.1689 15.34401890 56787

JSON: /api/v1/satellites/64179 · /tle

For live sub-satellite position, see the globe view (requires WebGL).

§ Visibility from observer

Set your observer location to see the next 7 days of passes ≥ 10°. The values pass through the URL so the page stays shareable.

No JS? Fill the form by hand. The geolocation button needs JavaScript.